When you browse on this site, cookies collect data to enhance your experience and personalize the content and advertising you see.
Visit our Privacy Policy to learn more. By continuing to use the site, you agree to this use of cookies and data.
  • In Lithuania
  • List of Countries
  • For 7 days
  • Water Temperature
  • Satellite Maps
  • Weather Map
  • Weather Widgets
  • user-avatar
    Login

    Hourly Weather Kitzbuhel

    Today, 20 May, Monday

    Time Temperature Precipitation Wind Pressure Humidity
    00:00 +9°C° 0.1 mm 1 mps 667 mmHg 93%
    01:00 +7°C° 0 mm 1 mps 666 mmHg 93%
    02:00 +7°C° 0 mm 1 mps 666 mmHg 93%
    03:00 +7°C° 0 mm 1 mps 666 mmHg 93%
    04:00 +7°C° 0 mm 1 mps 666 mmHg 93%
    05:00 +8°C° 0.1 mm 1 mps 666 mmHg 93%
    06:00 +9°C° 0.1 mm 1 mps 666 mmHg 92%
    07:00 +10°C° 0.1 mm 1 mps 666 mmHg 91%
    08:00 +11°C° 0.4 mm 1 mps 667 mmHg 89%
    09:00 +12°C° 0.4 mm 1 mps 667 mmHg 86%
    10:00 +13°C° 0.4 mm 1 mps 667 mmHg 84%
    11:00 +13°C° 0.8 mm 1 mps 667 mmHg 85%
    12:00 +13°C° 0.8 mm 1 mps 667 mmHg 87%
    13:00 +13°C° 0.8 mm 1 mps 667 mmHg 88%
    14:00 +13°C° 0.9 mm 1 mps 667 mmHg 89%
    15:00 +13°C° 0.9 mm 1 mps 667 mmHg 90%
    16:00 +12°C° 0.9 mm 1 mps 668 mmHg 92%
    17:00 +12°C° 0.9 mm 1 mps 667 mmHg 93%
    18:00 +11°C° 0.9 mm 1 mps 667 mmHg 95%
    19:00 +9°C° 0.9 mm 0 mps 667 mmHg 97%
    20:00 +10°C° 0.6 mm 1 mps 668 mmHg 97%
    21:00 +9°C° 0.6 mm 1 mps 668 mmHg 97%
    22:00 +9°C° 0.6 mm 1 mps 668 mmHg 96%
    23:00 +9°C° 1.4 mm 1 mps 668 mmHg 96%

    Tomorrow, 21 May, Tuesday

    Time Temperature Precipitation Wind Pressure Humidity
    00:00 +9°C° 1.4 mm 1 mps 668 mmHg 96%
    01:00 +8°C° 1.4 mm 1 mps 668 mmHg 96%
    02:00 +8°C° 2.1 mm 1 mps 668 mmHg 96%
    03:00 +8°C° 2.1 mm 1 mps 668 mmHg 96%
    04:00 +8°C° 2.1 mm 1 mps 668 mmHg 96%
    05:00 +8°C° 2.9 mm 1 mps 668 mmHg 96%
    06:00 +7°C° 2.9 mm 2 mps 669 mmHg 96%
    07:00 +7°C° 2.9 mm 2 mps 669 mmHg 96%
    08:00 +7°C° 3.3 mm 2 mps 669 mmHg 96%
    09:00 +7°C° 3.3 mm 2 mps 670 mmHg 96%
    10:00 +7°C° 3.3 mm 2 mps 670 mmHg 96%
    11:00 +9°C° 1.4 mm 1 mps 670 mmHg 94%
    12:00 +9°C° 1.4 mm 1 mps 671 mmHg 93%
    13:00 +10°C° 1.4 mm 1 mps 671 mmHg 92%
    14:00 +10°C° 0.9 mm 1 mps 672 mmHg 93%
    15:00 +10°C° 0.9 mm 1 mps 672 mmHg 93%
    16:00 +10°C° 0.9 mm 1 mps 672 mmHg 94%
    17:00 +10°C° 0.7 mm 1 mps 672 mmHg 95%
    18:00 +9°C° 0.7 mm 1 mps 672 mmHg 95%
    19:00 +9°C° 0.7 mm 1 mps 673 mmHg 96%
    20:00 +9°C° 0.9 mm 1 mps 673 mmHg 96%
    21:00 +8°C° 0.9 mm 1 mps 673 mmHg 96%
    22:00 +8°C° 0.9 mm 1 mps 674 mmHg 96%
    23:00 +8°C° 1.5 mm 1 mps 674 mmHg 96%

    Day after tomorrow, 22 May, Wednesday

    Time Temperature Precipitation Wind Pressure Humidity
    00:00 +7°C° 1.5 mm 2 mps 674 mmHg 96%
    01:00 +7°C° 1.5 mm 2 mps 674 mmHg 96%
    02:00 +7°C° 0.5 mm 2 mps 674 mmHg 95%
    03:00 +7°C° 0.5 mm 1 mps 674 mmHg 95%
    04:00 +7°C° 0.5 mm 1 mps 674 mmHg 95%
    05:00 +8°C° 0.7 mm 1 mps 674 mmHg 95%
    06:00 +8°C° 0.7 mm 1 mps 675 mmHg 95%
    07:00 +8°C° 0.7 mm 1 mps 675 mmHg 95%
    08:00 +9°C° 0.3 mm 1 mps 675 mmHg 94%
    09:00 +10°C° 0.3 mm 1 mps 676 mmHg 93%
    10:00 +10°C° 0.3 mm 1 mps 676 mmHg 92%
    11:00 +10°C° 0.2 mm 1 mps 676 mmHg 91%
    12:00 +11°C° 0.2 mm 1 mps 676 mmHg 90%
    13:00 +11°C° 0.2 mm 1 mps 677 mmHg 88%
    14:00 +12°C° 0.2 mm 1 mps 677 mmHg 85%
    15:00 +12°C° 0.2 mm 1 mps 677 mmHg 82%
    16:00 +13°C° 0.2 mm 1 mps 677 mmHg 78%
    17:00 +12°C° 0.1 mm 1 mps 677 mmHg 82%
    18:00 +11°C° 0.1 mm 1 mps 677 mmHg 86%
    19:00 +11°C° 0.1 mm 1 mps 677 mmHg 89%
    20:00 +10°C° 0 mm 1 mps 677 mmHg 92%
    21:00 +9°C° 0 mm 1 mps 678 mmHg 94%
    22:00 +8°C° 0 mm 1 mps 678 mmHg 96%
    23:00 +8°C° 0 mm 1 mps 678 mmHg 96%

    23 May, Thursday

    Time Temperature Precipitation Wind Pressure Humidity
    00:00 +7°C° 0 mm 1 mps 678 mmHg 97%
    01:00 +7°C° 0 mm 1 mps 678 mmHg 97%
    02:00 +7°C° 0 mm 1 mps 678 mmHg 97%
    03:00 +6°C° 0 mm 0 mps 678 mmHg 97%
    04:00 +6°C° 0 mm 0 mps 678 mmHg 96%
    05:00 +7°C° 0 mm 0 mps 678 mmHg 93%
    06:00 +9°C° 0 mm 0 mps 679 mmHg 89%
    07:00 +10°C° 0 mm 0 mps 679 mmHg 85%
    08:00 +11°C° 0 mm 0 mps 679 mmHg 76%
    09:00 +14°C° 0 mm 1 mps 679 mmHg 67%
    10:00 +16°C° 0 mm 1 mps 679 mmHg 58%
    11:00 +18°C° 0 mm 1 mps 679 mmHg 54%
    12:00 +18°C° 0 mm 1 mps 679 mmHg 49%
    13:00 +19°C° 0 mm 1 mps 679 mmHg 44%
    14:00 +18°C° 0 mm 2 mps 679 mmHg 46%
    15:00 +18°C° 0 mm 2 mps 678 mmHg 48%
    16:00 +18°C° 0 mm 2 mps 678 mmHg 50%
    17:00 +16°C° 0 mm 2 mps 677 mmHg 60%
    18:00 +14°C° 0 mm 1 mps 677 mmHg 71%
    19:00 +12°C° 0 mm 1 mps 677 mmHg 82%
    20:00 +11°C° 0 mm 1 mps 677 mmHg 86%
    21:00 +10°C° 0 mm 1 mps 677 mmHg 90%
    22:00 +8°C° 0 mm 1 mps 677 mmHg 94%
    23:00 +8°C° 0 mm 1 mps 677 mmHg 93%

    24 May, Friday

    Time Temperature Precipitation Wind Pressure Humidity
    00:00 +8°C° 0 mm 1 mps 677 mmHg 92%
    01:00 +7°C° 0 mm 1 mps 677 mmHg 91%
    02:00 +6°C° 0 mm 2 mps 676 mmHg 88%
    03:00 +6°C° 0 mm 2 mps 676 mmHg 85%
    04:00 +6°C° 0 mm 2 mps 676 mmHg 82%
    05:00 +9°C° 0 mm 1 mps 676 mmHg 75%
    06:00 +11°C° 0 mm 1 mps 676 mmHg 68%
    07:00 +12°C° 0 mm 0 mps 676 mmHg 61%
    08:00 +15°C° 0 mm 1 mps 676 mmHg 55%
    09:00 +18°C° 0 mm 1 mps 676 mmHg 49%
    10:00 +20°C° 0 mm 1 mps 676 mmHg 44%
    11:00 +20°C° 0 mm 1 mps 676 mmHg 43%
    12:00 +21°C° 0 mm 1 mps 675 mmHg 42%
    13:00 +20°C° 0 mm 2 mps 675 mmHg 41%
    14:00 +20°C° 0.1 mm 2 mps 674 mmHg 46%
    15:00 +19°C° 0.1 mm 2 mps 673 mmHg 51%
    16:00 +18°C° 0.1 mm 2 mps 673 mmHg 56%
    17:00 +16°C° 0.8 mm 2 mps 672 mmHg 68%
    18:00 +14°C° 0.8 mm 1 mps 672 mmHg 81%
    19:00 +12°C° 0.8 mm 1 mps 671 mmHg 94%
    20:00 +11°C° 2.6 mm 1 mps 671 mmHg 96%
    21:00 +10°C° 2.6 mm 2 mps 671 mmHg 97%
    22:00 +9°C° 2.6 mm 2 mps 671 mmHg 99%
    23:00 +8°C° 2.8 mm 2 mps 671 mmHg 98%

    25 May, Saturday

    Time Temperature Precipitation Wind Pressure Humidity
    00:00 +8°C° 2.8 mm 1 mps 671 mmHg 98%
    01:00 +8°C° 2.8 mm 1 mps 671 mmHg 98%
    02:00 +8°C° 1.4 mm 1 mps 671 mmHg 98%
    03:00 +7°C° 1.4 mm 1 mps 671 mmHg 97%
    04:00 +7°C° 1.4 mm 1 mps 671 mmHg 97%
    05:00 +7°C° 0.7 mm 1 mps 671 mmHg 96%
    06:00 +8°C° 0.7 mm 1 mps 672 mmHg 96%
    07:00 +8°C° 0.7 mm 1 mps 672 mmHg 95%
    08:00 +9°C° 0.2 mm 1 mps 672 mmHg 90%
    09:00 +11°C° 0.2 mm 1 mps 672 mmHg 85%
    10:00 +12°C° 0.2 mm 1 mps 673 mmHg 80%
    11:00 +12°C° 0.4 mm 1 mps 673 mmHg 80%
    12:00 +12°C° 0.4 mm 1 mps 673 mmHg 80%
    13:00 +12°C° 0.4 mm 1 mps 673 mmHg 80%
    14:00 +12°C° 0.4 mm 1 mps 673 mmHg 79%
    15:00 +12°C° 0.4 mm 1 mps 673 mmHg 79%
    16:00 +13°C° 0.4 mm 1 mps 673 mmHg 79%
    17:00 +12°C° 0.3 mm 1 mps 673 mmHg 84%
    18:00 +11°C° 0.3 mm 1 mps 673 mmHg 88%
    19:00 +10°C° 0.3 mm 1 mps 674 mmHg 93%
    20:00 +9°C° 0.1 mm 1 mps 674 mmHg 94%
    21:00 +9°C° 0.1 mm 1 mps 674 mmHg 95%
    22:00 +8°C° 0.1 mm 1 mps 675 mmHg 96%
    23:00 +8°C° 0.2 mm 1 mps 675 mmHg 96%
    Show more